Погода в Верхних Аремзянах

Россия / Тюменская область     58°18′33″N   68°35′21″E
темп.,
°C
ветер,
м/с
пор.,
м/с
влажн.,
%
обл.,
%
осадки,
мм/ч
давл.,
гПа
погр.,
м
20 апреля, вт
вт2023:00−6с13574 0.0 1034122
02:00−7з115759 0.0 103326
05:00−7зюз375826 0.0 1033246
08:00−3зюз594051 0.0 1031618
11:00+3з7103282 0.0 10271367
14:00+6з7103487 0.0 10241750
17:00+7зсз6114388 0.0 10231768
20:00+3з4106496 0.0 1022226
21 апреля, ср
ср2123:00+1зсз3127966 0.0 1023272
02:00−1ссз310935 0.0 1024225
05:00−1с389675 0.0 1026260
08:00+1с367092 0.0 1029659
11:00+5с46515 0.0 10301194
14:00+7ссз45445 0.0 10311469
17:00+7ссв34435 0.0 10321467
20:00+3св22635 0.0 103420
22 апреля, чт
чт2223:00+1юв24760 0.0 103671
02:000ююв24805 0.0 103773
05:00−1юв36795 0.0 1038128
08:00+4ю365919 0.0 1040426
11:00+8ююв454644 0.0 10391121
14:00+10ю45395 0.0 10391537
17:00+11ю46395 0.0 10381563
20:00+7ююв410555 0.0 1038296
23 апреля, пт
пт2323:00+5ююв51362100 0.0 1039386
02:00+3ююв41367100 0.0 1038355
05:00+2ююв5127094 0.0 1038313
08:00+6ююв5115571 0.0 1038428
11:00+11ююв684044 0.0 1037881
14:00+13ю673813 0.0 10351591
17:00+14ю573946 0.0 10341935
20:00+11ююв51150100 0.0 1034445
24 апреля, сб
сб2423:00+9ю41254100 0.0 1034522
02:00+6ююв41161100 0.0 1033348
05:00+4ююв396699 0.0 1032229
08:00+7ююв4856100 0.0 1031320
11:00+11ю4643100 0.0 1030765
14:00+12ю4637100 0.0 10291416
17:00+12ю3538100 0.0 10281693
20:00+9юв3752100 0.0 1028162